Location: Baix
(44.7118°N, 4.7648°E)
Time: 17:43:18
(UTC+00:00)

Meteor 2-13 Rocket - Pass Details

Date: 07 August 2020
Orbit: 937 x 957 km, 82.5° (Epoch: 23 September)

Event Time Altitude Azimuth Distance (km) Brightness Sun altitude
Rises 01:24:36 0° 348° (NNW) 3,617 8.3 -25.0°
Reaches altitude 10° 01:27:07 10° 346° (NNW) 2,671 7.4 -24.8°
Maximum altitude 01:33:08 64° 266° (W) 1,043 4.4 -24.3°
Enters shadow 01:34:13 55° 220° (SW) 1,132 4.4 -24.2°
